Location: Arbon
(43.0005°N, 0.7472°E)
Time: 21:20:51
(UTC+00:00)

Explorer 7 - Pass Details

Date: 27 November 2020
Orbit: 484 x 678 km, 50.3° (Epoch: 25 January)

Event Time Altitude Azimuth Distance (km) Brightness Sun altitude
Rises 09:28:02 0° 289° (WNW) 2,640 9.8 18.5°
Reaches altitude 10° 09:30:51 10° 269° (W) 1,718 9.1 18.8°
Maximum altitude 09:33:25 17° 227° (SW) 1,304 9.0 19.0°
Drops below altitude 10° 09:35:57 10° 185° (S) 1,670 10.3 19.3°
Sets 09:38:37 0° 165° (SSE) 2,534 11.6 19.5°
